Regional Weather Roundup
Issued by NWS Wakefield, VA

Home | Current Version | Previous Version | Graphics & Text | Print | Product List | Glossary On
Versions: 1 2 3 4 5 6 7 8 9 10 11 12 13 14 15 16 17 18 19 20 21 22 23 24 25 26 27 28 29 30 31 32 33 34 35 36 37 38 39 40 41 42 43 44 45 46 47 48 49 50
618
ASUS41 KAKQ 080515
RWRAKQ

REGIONAL WEATHER ROUNDUP
NATIONAL WEATHER SERVICE WAKEFIELD VA
1200 AM EST THU DEC 08 2016

Note: "fair" indicates few or no clouds below 12,000 feet with no
significant weather and/or obstructions to visibility. * = Denotes
station may not report precipitation (e.g., rain,snow,etc.),
thunder or fog.

VAZ042-051-052>054-056-080600-
NORTHERN VIRGINIA

CITY           SKY/WX    TMP DP  RH WIND       PRES   REMARKS
WASH NATIONAL  PTCLDY    40  35  83 SW3       30.09S
DULLES         CLOUDY    30  28  92 CALM      30.07F
FORT BELVOIR   CLEAR     30  28  93 CALM      30.07F
QUANTICO       CLEAR     34  31  88 NW8       30.09F
FREDERICKSBRG* CLOUDY    33  33 100 CALM      30.07F
STAFFORD*      CLOUDY    29  29 100 CALM      30.11F FOG
WARRENTON      CLEAR     28  24  86 CALM      30.06F
CULPEPER*      CLEAR     30  30 100 CALM      30.08F
MANASSAS*        N/A    N/A N/A N/A MISG        N/A
LEESBURG*      CLOUDY    32  32 100 MISG      30.07F
WINCHESTER     PTCLDY    30  27  86 CALM      30.05F
FRONT ROYAL*   FAIR      30  30 100 CALM      30.05S
LURAY*         FAIR      30  30 100 CALM      30.05F FOG
$$

VAZ048-049-060>072-079>083-080600-
CENTRAL AND SOUTH CENTRAL VIRGINIA

CITY           SKY/WX    TMP DP  RH WIND       PRES   REMARKS
RICHMOND       CLOUDY    39  33  79 CALM      30.07F
CHESTERFIELD*  FAIR      36  19  51 CALM      30.08F
PETERSBURG*    PTCLDY    33  32  96 CALM      30.08F
HANOVER        CLOUDY    35  32  88 CALM      30.09F
TAPPAHANNOCK*  CLOUDY    32  32 100 CALM      30.08F
QUINTON*       FAIR      36  35  96 CALM      30.08S
CHARLOTTSVILLE PTCLDY    37  33  85 CALM      30.05F
GORDONSVILLE*  FAIR      32  32 100 CALM      30.05F
ORANGE*          N/A     32  32 100 CALM      30.07F
LOUISA*        CLOUDY    37  36  93 CALM      30.05F
BUMPASS*       FAIR      33  33 100 CALM      30.07F
FARMVILLE*     PTCLDY    37  37 100 CALM      30.05F
CREWE*         FAIR      38  38 100 CALM      30.07F
FORT PICKETT*  FAIR      42  39  88 SE6       30.07F
CHASE CITY*    FAIR      38  37  94 CALM      30.06F
CLARKSVILLE*   CLOUDY    39  39 100 CALM      30.05F
SOUTH HILL*    MOCLDY    41  41 100 CALM      30.12F
LAWRENCEVILLE* FAIR      43  41  92 MISG      30.07F
EMPORIA*       CLOUDY    41  41 100 CALM      30.10S
$$

VAZ088>098-080600-
SOUTHEAST VIRGINIA

CITY           SKY/WX    TMP DP  RH WIND       PRES   REMARKS
NORFOLK        CLEAR     39  37  92 CALM      30.08S
VIRGINIA BEACH PTCLDY    37  35  92 SW5       30.08S
NORFOLK NAVAL  PTCLDY    39  38  96 CALM      30.10S
WEST POINT*    CLOUDY    33  33  96 CALM      30.09F
SALUDA*        FAIR      35  35 100 CALM      30.08F
NEWPORT NEWS   FOG       36  35  96 CALM      30.08F VSB 1/4
LANGLEY AFB    MOCLDY    38  38  99 CALM      30.08F
FORT EUSTIS    CLEAR     38  36  92 CALM      30.05F
WILLIAMSBURG*  CLEAR     39  39 100 CALM      30.09S
HR EXEC AP*    FAIR      32  28  86 CALM      30.08S VSB 1
FRANKLIN*      CLOUDY    37  36  96 CALM      30.10S
US460-WAKEFLD  PTCLDY    36  36 100 CALM      30.08F FOG
$$

VAZ020-022-025-037-045-080600-
WEST CENTRAL AND SOUTHWEST VIRGINIA

CITY           SKY/WX    TMP DP  RH WIND       PRES   REMARKS
STAUNTON*      CLOUDY    29  29  99 CALM      30.06F FOG
WAYNESBORO*    FAIR      33  31  92 SW3       30.04F
HOT SPRINGS VA CLOUDY    37  12  35 SW6       29.97F
LYNCHBURG      PTCLDY    36  33  89 CALM      30.06F
DANVILLE       MOCLDY    38  38 100 N3        30.06F
SOUTH BOSTON*  MOCLDY    36  35  95 CALM      30.07F
MARTINSVILLE   CLOUDY    33  32  96 CALM      30.07F
ROANOKE        PTCLDY    39  32  76 CALM      30.06F
BLACKSBURG     CLOUDY    35  31  87 CALM      30.06F
DUBLIN*        CLOUDY    36  32  85 CALM      30.05S
MARION*        MOCLDY    35  33  90 SW5       30.07S
HILLSVILLE*    CLOUDY    38  32  80 CALM      30.01F
RICHLANDS*     FAIR      33  27  79 CALM      30.07R
WISE*          CLOUDY    36  28  75 CALM      30.08F
ABINGDON*      PTCLDY    36  32  85 CALM      30.07S
$$

MDZ021>025-VAZ099-100-080600-
SOUTHERN MARYLAND AND THE DELMARVA PENINSULA

CITY           SKY/WX    TMP DP  RH WIND       PRES   REMARKS
PATUXENT RIVER CLEAR     33  31  92 CALM      30.07F
BAY BRIDGE APT CLEAR     36  34  93 CALM      30.07F
LEONARDTOWN    CLEAR     34  32  93 CALM      30.08F
DOVER          CLEAR     35  35 100 SW3       30.04F
GEORGETOWN     CLOUDY    32  31  96 SW5       30.07S FOG
EASTON         CLEAR     34  32  92 CALM      30.10F FOG
CAMBRIDGE      PTCLDY    32  32 100 CALM      30.07S
SALISBURY      CLOUDY    32  31  96 CALM      30.07F
OCEAN CITY     FOG       34  33  96 CALM      30.08S VSB 1/2
WALLOPS ISLAND PTCLDY    35  35 100 NW3       30.08F
ACCOMACK*      CLEAR     33  33  99 CALM      30.08F FOG
$$

NCZ012>017-030>032-080600-
NORTH CENTRAL AND EASTERN NORTH CAROLINA

CITY           SKY/WX    TMP DP  RH WIND       PRES   REMARKS
ROANOKE RAPIDS CLOUDY    43  43 100 CALM      30.09S
RALEIGH        CLOUDY    49  44  83 CALM      30.06F
ELIZABETH CITY FOG       39  38  96 SW3       30.09S VSB 3/4
AHOSKIE*       CLOUDY    42  41  95 CALM      30.10S
EDENTON*       CLEAR     43  41  93 CALM      30.11S
CURRITUCK*     CLEAR     41  41 100 CALM      30.10S
KILL DEVIL HLS CLEAR     48  44  87 CALM      30.08R
MANTEO         CLEAR     41  41 100 CALM      30.10R
CAPE HATTERAS  NOT AVBL
TARBORO*       NOT AVBL
GOLDSBORO      CLOUDY    48  47  99 SE5       30.06F
WASHINGTON     PTCLDY    41  40  97 E3        30.10S
GREENVILLE     CLOUDY    43  43 100 CALM      30.11S
NEW BERN       PTCLDY    42  40  92 NE3       30.10S FOG
WILMINGTON     CLEAR     44  44 100 CALM      30.08F
$$

VAZ048-080600-
ELSEWHERE

CITY           SKY/WX    TMP DP  RH WIND       PRES   REMARKS
HARRISBURG PA  CLOUDY    37  24  59 NW6       30.03F
BALTIMORE      CLOUDY    32  31  96 CALM      30.06F
ANNAPOLIS      CLEAR     37  33  85 CALM      30.06F
ANDREWS AFB    CLEAR     32  30  92 W3        30.06S
PHILADELPHIA   CLOUDY    39  33  79 SW6       30.05F
HENDERSON NC   CLOUDY    45  40  83 S3        30.07S
GREENSBORO     MOCLDY    48  41  76 CALM      30.04F
ROCKY MOUNT    CLOUDY    44  44 100 CALM      30.08F
$$

VAZ100-080600-
MARINE

STATION/POSITION TIME  TEMP    WIND        PRES    WAVE   SWELL
                       AIR SEA DIR/SP/G            HT/PER HT/PER
                 (UTC) (F)     (DEG/KT/KT) (MB)    (FT/S) (FT/S)
BRANDYWINE LGT   0442   44     270/  7/  8   N/A
CAPE MAY NJ      0436   45 48  260/  7/  8 1017.4F
LEWES DE         0436   39 49  220/  3/  5 1017.9F
OCEAN-CITY-INLET 0442   42 49  280/  3/  4 1018.6F
WACHAPREAGUE VA  0442   37 49   CALM  /  1 1018.6F
THOMAS POINT MD  0400   44 49  270/  5/  5   N/A
GOOSES REEF MD   0450   47     230/  4/  4 1018.9F
COVE POINT MD    0442   45     230/  2/  3 1018.9F
SOLOMONS ISLAND  0442   39 50  340/  2/  2   N/A
BISHOPS HEAD MD  0442   45 47  210/  4/  4 1018.7F
PINEY POINT MD   0442          230/  2/  3   N/A
POTOMAC MD       0450   46     220/  6/  8 1017.5F
CAMBRIDGE MD     0442   37 47  210/  2/  3 1017.7F
LEWISETTA VA     0442   41 49  230/  3/  4 1018.2F
RAPPAHANNOCK LGT 0442          160/  4/  4 1019.1F
STINGRAY PT      0450   47     210/  4/  4 1018.8F
YORK RVR RNG VA  0442   49     180/  5/  5 1018.3F
YORKTOWN VA      0442   43 51  200/  4/  5 1018.5F
JAMESTOWN VA     0450   45     180/  4/  6   N/A
DOMINION TERM VA 0442   48     170/  4/  4 1018.8F
KIPTOPEKE VA     0442      51  330/  1/  2   N/A
CHES BAY BRIDGE  0442   49 52   70/  1/  2 1018.7R
CAPE HENRY VA    0442   47      CALM  /  1   N/A
WILLOUBY STN VA  0442   47     190/  4/  4 1019.6F
S CRANEY ISL VA  0442   44     220/  2/  3 1018.8R
CAPE HENRY BUOY  0442      54                N/A     4/ 9   2/12
1ST LANDING BUOY 0430   49                 1018.8F
CAPE CHARLES BUO 0456      54                N/A     4/ 8   2/12
OFFSHORE WE BUOY 0451      56                N/A     5/ 8   2/11
64NM E OF VA BCH 0350   53 58  350/ 12/ 14 1018.0    7/ 9   7/ 9
DUCK PIER NC     0442   51 54   10/  4/  6 1018.3R
44100 DUCK FRF   0435      55                N/A     5/13   2/13
OREGON INLET NC  0442   48 56  300/  3/  3 1018.5F
HATTERAS NC      0442   52 60   20/  5/  6 1018.4F
DIAMOND SHLS NC  0350   54 78   10/  6/ 10 1018.6    6/11   7/11
CAPE LOOKOUT NC  0400   55      60/  6/  7 1018.3F
$$




USA.gov is the U.S. government's official web portal to all federal, state and local government web resources and services.